BAW24I MMUN-EGKK

Flight info

Callsign BAW24I
Flight time N/A
Altitude 37000
Route NUDAL1A NUDAL UV106 PODON UG765 MAXIM DCT VKZ DCT NUCAR A699 SUMRS/M083F370 M204 SOORY NATZ ATSUR DCT GAPLI/N0474F370 DCT SIDDI DCT DAWLY DCT ELRIP DCT OTMET
Aircraft B772/H-SDE2E3FGHIJ5LORVWXY/LB1D1

Departure

Time 2026-04-29 23:10
Airport Cancún International Airport (MMUN)

Arrival

Time N/A
Airport London Gatwick Airport (EGKK)
Time Latitude Longitude Altitude Speed Heading
2026-04-29 22:40 21.03539 -86.86914 33 ft 0 kts 34°
2026-04-29 22:56 21.03526 -86.86923 32 ft 4 kts 34°
2026-04-29 22:56 21.03504 -86.86939 33 ft 4 kts 34°
2026-04-29 22:56 21.03484 -86.86952 32 ft 4 kts
2026-04-29 22:56 21.03465 -86.86945 34 ft 4 kts 303°
2026-04-29 22:57 21.03455 -86.86928 34 ft 0 kts 304°
2026-04-29 23:00 21.03456 -86.86929 34 ft 2 kts 304°
2026-04-29 23:00 21.03483 -86.86972 34 ft 8 kts 304°
2026-04-29 23:00 21.03502 -86.87003 34 ft 8 kts 304°
2026-04-29 23:00 21.03534 -86.87054 34 ft 8 kts 304°
2026-04-29 23:01 21.03567 -86.87106 34 ft 8 kts 304°
2026-04-29 23:01 21.03583 -86.87132 34 ft 8 kts 304°
2026-04-29 23:01 21.03594 -86.87150 34 ft 8 kts 304°
2026-04-29 23:01 21.03627 -86.87201 34 ft 8 kts 304°
2026-04-29 23:02 21.03659 -86.87253 34 ft 8 kts 304°
2026-04-29 23:02 21.03691 -86.87305 34 ft 8 kts 304°
2026-04-29 23:02 21.03724 -86.87356 34 ft 8 kts 304°
2026-04-29 23:02 21.03756 -86.87408 34 ft 8 kts 304°
2026-04-29 23:03 21.03788 -86.87460 34 ft 8 kts 304°
2026-04-29 23:03 21.03820 -86.87512 34 ft 8 kts 298°
2026-04-29 23:03 21.03823 -86.87572 34 ft 8 kts 261°
2026-04-29 23:03 21.03817 -86.87633 35 ft 8 kts 278°
2026-04-29 23:04 21.03845 -86.87688 35 ft 9 kts 303°
2026-04-29 23:04 21.03885 -86.87752 34 ft 12 kts 303°
2026-04-29 23:04 21.03935 -86.87831 35 ft 13 kts 303°
2026-04-29 23:04 21.03986 -86.87913 32 ft 13 kts 304°
2026-04-29 23:05 21.04037 -86.87994 34 ft 13 kts 304°
2026-04-29 23:05 21.04088 -86.88075 34 ft 13 kts 304°
2026-04-29 23:05 21.04140 -86.88156 33 ft 13 kts 304°
2026-04-29 23:05 21.04190 -86.88236 35 ft 13 kts 303°
2026-04-29 23:06 21.04240 -86.88318 35 ft 13 kts 304°
2026-04-29 23:06 21.04292 -86.88399 35 ft 13 kts 304°
2026-04-29 23:06 21.04343 -86.88480 35 ft 13 kts 304°
2026-04-29 23:06 21.04394 -86.88561 35 ft 13 kts 304°
2026-04-29 23:07 21.04445 -86.88642 33 ft 13 kts 304°
2026-04-29 23:07 21.04495 -86.88723 34 ft 13 kts 303°
2026-04-29 23:07 21.04546 -86.88804 34 ft 13 kts 304°
2026-04-29 23:07 21.04597 -86.88885 33 ft 13 kts 304°
2026-04-29 23:08 21.04642 -86.88970 34 ft 13 kts 281°
2026-04-29 23:08 21.04614 -86.89023 35 ft 12 kts 220°
2026-04-29 23:08 21.04564 -86.89060 35 ft 6 kts 213°
2026-04-29 23:08 21.04541 -86.89073 36 ft 1 kts 193°
2026-04-29 23:09 21.04522 -86.89070 36 ft 3 kts 163°
2026-04-29 23:09 21.04507 -86.89056 35 ft 5 kts 129°
2026-04-29 23:09 21.04473 -86.89002 37 ft 20 kts 124°
2026-04-29 23:09 21.04276 -86.88689 39 ft 86 kts 123°
2026-04-29 23:10 21.03817 -86.87955 38 ft 150 kts 124°
2026-04-29 23:10 21.03162 -86.86918 311 ft 178 kts 124°
2026-04-29 23:10 21.02503 -86.85765 996 ft 186 kts 121°
2026-04-29 23:10 21.01889 -86.84557 1816 ft 186 kts 120°
2026-04-29 23:11 21.01219 -86.83274 2046 ft 207 kts 120°
2026-04-29 23:11 21.00473 -86.81881 2144 ft 225 kts 120°
2026-04-29 23:11 20.99671 -86.80372 2332 ft 240 kts 120°
2026-04-29 23:11 20.98834 -86.78789 2472 ft 248 kts 120°
2026-04-29 23:12 20.97970 -86.77164 2747 ft 253 kts 120°
2026-04-29 23:12 20.97093 -86.75532 3254 ft 255 kts 120°
2026-04-29 23:12 20.96391 -86.73796 3684 ft 258 kts 100°
2026-04-29 23:12 20.96359 -86.71892 4113 ft 261 kts 87°
2026-04-29 23:13 20.96557 -86.69953 4555 ft 265 kts 81°
2026-04-29 23:13 20.97005 -86.68022 5069 ft 268 kts 76°
2026-04-29 23:13 20.97547 -86.66098 5617 ft 270 kts 75°
2026-04-29 23:13 20.98106 -86.64161 6115 ft 273 kts 75°
2026-04-29 23:14 20.98670 -86.62207 6629 ft 275 kts 75°
2026-04-29 23:14 20.99227 -86.60263 7122 ft 278 kts 75°
2026-04-29 23:14 20.99798 -86.58268 7564 ft 280 kts 75°
2026-04-29 23:14 21.00368 -86.56257 8016 ft 284 kts 75°
2026-04-29 23:15 21.00940 -86.54228 8529 ft 284 kts 75°
2026-04-29 23:15 21.01515 -86.52190 8970 ft 288 kts 74°
2026-04-29 23:15 21.02091 -86.50125 9408 ft 291 kts 74°
2026-04-29 23:15 21.02659 -86.48083 9962 ft 289 kts 74°
2026-04-29 23:16 21.03243 -86.45986 10176 ft 301 kts 73°
2026-04-29 23:16 21.03854 -86.43784 10292 ft 316 kts 73°
2026-04-29 23:16 21.04497 -86.41465 10444 ft 333 kts 73°
2026-04-29 23:16 21.05171 -86.39031 10566 ft 348 kts 73°
2026-04-29 23:17 21.05875 -86.36486 10753 ft 363 kts 73°
2026-04-29 23:17 21.06602 -86.33860 11164 ft 372 kts 73°
2026-04-29 23:17 21.07344 -86.31182 11796 ft 374 kts 73°
2026-04-29 23:17 21.08082 -86.28524 12605 ft 372 kts 73°
2026-04-29 23:18 21.08822 -86.25852 13229 ft 376 kts 72°
2026-04-29 23:18 21.09564 -86.23176 13716 ft 383 kts 72°
2026-04-29 23:18 21.10323 -86.20417 14314 ft 386 kts 72°
2026-04-29 23:18 21.11088 -86.17641 14923 ft 390 kts 72°
2026-04-29 23:19 21.11862 -86.14842 15515 ft 394 kts 72°
2026-04-29 23:19 21.12644 -86.12010 16099 ft 398 kts 72°
2026-04-29 23:19 21.13432 -86.09146 16680 ft 402 kts 72°
2026-04-29 23:19 21.14228 -86.06257 17270 ft 406 kts 72°
2026-04-29 23:20 21.15031 -86.03336 17860 ft 410 kts 72°
2026-04-29 23:20 21.15831 -86.00422 18416 ft 414 kts 72°
2026-04-29 23:20 21.16650 -85.97441 18967 ft 418 kts 71°
2026-04-29 23:20 21.17474 -85.94436 19523 ft 422 kts 71°
2026-04-29 23:21 21.18306 -85.91396 20018 ft 427 kts 71°
2026-04-29 23:21 21.19147 -85.88326 20542 ft 431 kts 71°
2026-04-29 23:21 21.19996 -85.85223 21051 ft 434 kts 71°
2026-04-29 23:21 21.20833 -85.82157 21723 ft 433 kts 71°
2026-04-29 23:22 21.21681 -85.79047 22325 ft 434 kts 71°
2026-04-29 23:22 21.22534 -85.75926 22787 ft 438 kts 71°
2026-04-29 23:22 21.23396 -85.72771 23163 ft 443 kts 70°
2026-04-29 23:22 21.24266 -85.69587 23560 ft 447 kts 70°
2026-04-29 23:23 21.25152 -85.66389 23945 ft 447 kts 68°
2026-04-29 23:23 21.26393 -85.63331 24270 ft 447 kts 57°
2026-04-29 23:23 21.28097 -85.60596 24638 ft 447 kts 49°
2026-04-29 23:23 21.30182 -85.58140 25022 ft 444 kts 40°
2026-04-29 23:24 21.32489 -85.55928 25360 ft 446 kts 39°
2026-04-29 23:24 21.34817 -85.53713 25705 ft 449 kts 39°
2026-04-29 23:24 21.37161 -85.51471 26055 ft 451 kts 39°
2026-04-29 23:24 21.39505 -85.49216 26404 ft 453 kts 39°
2026-04-29 23:25 21.41860 -85.46937 26742 ft 455 kts 39°
2026-04-29 23:25 21.44211 -85.44652 27063 ft 457 kts 39°
2026-04-29 23:25 21.46570 -85.42352 27355 ft 459 kts 39°
2026-04-29 23:25 21.48906 -85.40070 27652 ft 461 kts 39°
2026-04-29 23:26 21.51297 -85.37731 27946 ft 462 kts 39°
2026-04-29 23:26 21.53683 -85.35395 28214 ft 465 kts 39°
2026-04-29 23:26 21.56078 -85.33052 28479 ft 466 kts 39°
2026-04-29 23:26 21.58457 -85.30724 28732 ft 468 kts 39°
2026-04-29 23:27 21.60865 -85.28365 28977 ft 470 kts 39°
2026-04-29 23:27 21.63288 -85.25992 29193 ft 471 kts 39°
2026-04-29 23:27 21.65715 -85.23613 29428 ft 472 kts 39°
2026-04-29 23:27 21.68154 -85.21220 29645 ft 473 kts 38°
2026-04-29 23:28 21.70594 -85.18823 29852 ft 475 kts 39°
2026-04-29 23:28 21.73008 -85.16455 30087 ft 474 kts 38°
2026-04-29 23:28 21.75442 -85.14066 30388 ft 473 kts 38°
2026-04-29 23:28 21.77869 -85.11681 30709 ft 471 kts 38°
2026-04-29 23:29 21.80287 -85.09303 31044 ft 468 kts 38°
2026-04-29 23:29 21.82684 -85.06945 31375 ft 465 kts 38°
2026-04-29 23:29 21.85070 -85.04597 31661 ft 463 kts 38°
2026-04-29 23:29 21.87417 -85.02288 31934 ft 462 kts 38°
2026-04-29 23:30 21.89792 -84.99950 32177 ft 461 kts 38°
2026-04-29 23:30 21.92154 -84.97623 32435 ft 459 kts 38°
2026-04-29 23:30 21.94508 -84.95303 32689 ft 457 kts 38°
2026-04-29 23:30 21.96860 -84.92984 32921 ft 456 kts 38°
2026-04-29 23:31 21.99200 -84.90677 33184 ft 454 kts 39°
2026-04-29 23:31 22.01526 -84.88380 33375 ft 454 kts 38°
2026-04-29 23:31 22.03826 -84.86108 33575 ft 453 kts 38°
2026-04-29 23:31 22.06157 -84.83804 33777 ft 452 kts 38°
2026-04-29 23:32 22.08476 -84.81511 34005 ft 450 kts 38°
2026-04-29 23:32 22.10786 -84.79226 34244 ft 449 kts 38°
2026-04-29 23:32 22.15384 -84.74682 34425 ft 452 kts 39°
2026-04-29 23:33 22.17705 -84.72385 34566 ft 452 kts 39°
2026-04-29 23:33 22.20027 -84.70083 34681 ft 454 kts 39°